KPSPKIFP

Guest
Details From KPSP - Palm Springs Intl
To KIFP - Laughlin Bullhead Intl
Flight Number -
Tags generated
Created
Modified
Stats Distance 125 nm / 232 km
Max Altitude 7,000 ft / 2,134 m
Waypoints 3
Social Downloads 2
Likes 0
Share VATSIM

Download

Looking for another format? Having issues loading an existing format? Contact us
Advertisement - Login to hide

Notes

Basic altitude profile: - Ascent Rate: 1200ft/min - Ascent Speed: 120kts - Cruise Altitude: 8000ft - Cruise Speed: 120kts - Descent Rate: 1000ft/min - Descent Speed: 100kts Options: - Use NATs: no - Use PACOTS: no - Use low airways: yes - Use high airways: no

Route

KPSP CLIPP KIFP

ID Type Via Altitude Latitude Longitude Leg Dist Tot Dist Heading (true) Name
O KPSP APT - 0 ft / 0 m 33.82968˚ -116.50622˚ - 0 nm - Palm Springs Intl
CLIPP FIX - 7,000 ft / 2,134 m 34.77825˚ -115.04570˚ 92 nm 92 nm 51° / 52° -
O KIFP APT - 0 ft / 0 m 35.15599˚ -114.55944˚ 32 nm 125 nm 46° / 47° Laughlin Bullhead Intl

Altitude Profile

Advertisement - Login to hide

KPSP

Details ICAO KPSP (PSP)
Name Palm Springs Intl
Region United States
Timezone America/Los_Angeles (UTC-8.0)
Stats Elevation 477 ft / 145 m (AMSL)
Location 33.829677° -116.506218°
Runways 2
Magnetic Variation 11.580° E

METAR

KPSP 150953Z AUTO 32005KT 10SM CLR 21/M12 A3018 RMK AO2 SLP217 T02061117

Decode

TAF

KPSP 150520Z 1506/1606 32008KT P6SM SKC FM151400 VRB05KT P6SM SKC FM151900 12006KT P6SM SKC

Decode

Departure Runways

ID Width Length Bearing (true) Bearing (mag) Surface Threshold Offset Overrun Length
13L 75 ft / 23 m 4,958 ft / 1,511 m 143.52° 131.94° Asphalt 0 ft / 0 m 151 ft / 46 m
13R 151 ft / 46 m 10,012 ft / 3,052 m 143.52° 131.94° Asphalt 2,999 ft / 914 m 200 ft / 61 m
31L 151 ft / 46 m 10,012 ft / 3,052 m 323.53° 311.95° Asphalt 1,499 ft / 457 m 200 ft / 61 m
31R 75 ft / 23 m 4,958 ft / 1,511 m 323.53° 311.95° Asphalt 0 ft / 0 m 151 ft / 46 m

KIFP

Details ICAO KIFP
Name Laughlin Bullhead Intl
Region United States
Timezone America/Phoenix (UTC-7.0)
Stats Elevation 701 ft / 214 m (AMSL)
Location 35.155985° -114.559436°
Runways 1
Magnetic Variation 11.333° E

METAR

KIFP 151035Z AUTO 01019G25KT 10SM CLR 15/M08 A3020 RMK AO2

Decode

TAF

TAF KIFP 150533Z 1506/1606 02015KT P6SM FEW250 FM151500 01014G22KT P6SM SCT250 FM152200 02011KT P6SM SCT250 FM160200 VRB05KT P6SM SCT250

Decode

Destination Runways

ID Width Length Bearing (true) Bearing (mag) Surface Threshold Offset Overrun Length
16 151 ft / 46 m 7,518 ft / 2,292 m 176.47° 165.14° Asphalt 0 ft / 0 m 699 ft / 213 m
34 151 ft / 46 m 7,518 ft / 2,292 m 356.47° 345.14° Asphalt 0 ft / 0 m 200 ft / 61 m

Popular Alternatives